Time,TemperatureF,DewpointF,PressureIn,WindDirection,WindDirectionDegrees,WindSpeedMPH,WindSpeedGustMPH,Humidity,HourlyPrecipIn,Conditions,Clouds,dailyrainin,SolarRadiationWatts/m^2,SoftwareType,DateUTC
2013-05-12 00:06:00,58.9,57.8,28.97,SW,226,1.0,1.0,96,0.00,,,0.00,0,Wunderground v.1.15,2013-05-12 04:06:00,
2013-05-12 00:10:00,58.8,57.7,28.96,SW,226,0.0,0.0,96,0.00,,,0.00,0,Wunderground v.1.15,2013-05-12 04:10:00,
2013-05-12 00:15:00,58.7,57.6,28.97,SW,226,0.0,0.0,96,0.00,,,0.00,0,Wunderground v.1.15,2013-05-12 04:15:00,
2013-05-12 00:20:00,58.7,57.6,28.97,WSW,252,0.0,0.0,96,0.00,,,0.00,0,Wunderground v.1.15,2013-05-12 04:20:00,
2013-05-12 00:25:00,58.8,57.7,28.97,WSW,244,1.0,1.0,96,0.00,,,0.00,0,Wunderground v.1.15,2013-05-12 04:25:00,
2013-05-12 00:35:00,58.7,57.6,28.97,WSW,244,0.0,2.0,96,0.00,,,0.00,0,Wunderground v.1.15,2013-05-12 04:35:00,
2013-05-12 00:40:00,58.8,57.7,28.96,WSW,244,1.0,1.0,96,0.00,,,0.00,0,Wunderground v.1.15,2013-05-12 04:40:00,
2013-05-12 00:50:00,58.7,57.6,28.96,WSW,240,0.0,0.0,96,0.00,,,0.00,0,Wunderground v.1.15,2013-05-12 04:50:00,
2013-05-12 00:55:00,58.7,57.6,28.95,WSW,240,0.0,0.0,96,0.00,,,0.00,0,Wunderground v.1.15,2013-05-12 04:55:00,
2013-05-12 01:05:00,58.6,57.5,28.96,East,86,2.0,2.0,96,0.00,,,0.00,0,Wunderground v.1.15,2013-05-12 05:05:00,
2013-05-12 01:15:00,58.5,57.4,28.96,East,80,1.0,3.0,96,0.00,,,0.00,0,Wunderground v.1.15,2013-05-12 05:15:00,
2013-05-12 01:20:00,58.5,57.4,28.97,ENE,78,1.0,1.0,96,0.00,,,0.00,0,Wunderground v.1.15,2013-05-12 05:20:00,
2013-05-12 01:30:00,57.8,56.7,28.96,East,79,2.0,2.0,96,0.00,,,0.00,0,Wunderground v.1.15,2013-05-12 05:30:00,
2013-05-12 01:40:00,57.2,56.1,28.96,ENE,65,1.0,1.0,96,0.00,,,0.00,0,Wunderground v.1.15,2013-05-12 05:40:00,
2013-05-12 01:45:00,56.9,55.8,28.95,ENE,68,0.0,1.0,96,0.00,,,0.00,0,Wunderground v.1.15,2013-05-12 05:45:00,
2013-05-12 01:50:00,56.7,55.6,28.95,ENE,68,0.0,0.0,96,0.00,,,0.00,0,Wunderground v.1.15,2013-05-12 05:50:00,
2013-05-12 02:00:00,56.4,55.3,28.96,ENE,69,0.0,1.0,96,0.00,,,0.00,0,Wunderground v.1.15,2013-05-12 06:00:00,
2013-05-12 02:06:00,56.4,55.3,28.95,ENE,69,0.0,1.0,96,0.00,,,0.00,0,Wunderground v.1.15,2013-05-12 06:06:00,
2013-05-12 02:15:00,56.3,55.2,28.95,ENE,69,0.0,0.0,96,0.00,,,0.00,0,Wunderground v.1.15,2013-05-12 06:15:00,
2013-05-12 02:20:00,56.3,55.2,28.95,ENE,69,0.0,0.0,96,0.00,,,0.00,0,Wunderground v.1.15,2013-05-12 06:20:00,
2013-05-12 02:30:00,56.1,55.0,28.95,ENE,69,0.0,0.0,96,0.00,,,0.00,0,Wunderground v.1.15,2013-05-12 06:30:00,
2013-05-12 02:35:00,56.0,54.9,28.95,ENE,69,0.0,0.0,96,0.00,,,0.00,0,Wunderground v.1.15,2013-05-12 06:35:00,
2013-05-12 02:45:00,55.8,54.7,28.95,ENE,69,0.0,0.0,96,0.00,,,0.00,0,Wunderground v.1.15,2013-05-12 06:45:00,
2013-05-12 02:50:00,55.7,54.6,28.95,ENE,69,0.0,0.0,96,0.00,,,0.00,0,Wunderground v.1.15,2013-05-12 06:50:00,
2013-05-12 02:55:00,55.7,54.6,28.95,ENE,69,0.0,0.0,96,0.00,,,0.00,0,Wunderground v.1.15,2013-05-12 06:55:00,
2013-05-12 03:06:00,55.7,54.6,28.95,ENE,69,0.0,0.0,96,0.00,,,0.00,0,Wunderground v.1.15,2013-05-12 07:06:00,
2013-05-12 03:15:00,55.6,54.5,28.94,ENE,69,0.0,0.0,96,0.00,,,0.00,0,Wunderground v.1.15,2013-05-12 07:15:00,
2013-05-12 03:25:00,54.7,53.6,28.94,ENE,69,0.0,0.0,96,0.00,,,0.00,0,Wunderground v.1.15,2013-05-12 07:25:00,
2013-05-12 03:35:00,54.0,52.9,28.94,ENE,69,0.0,0.0,96,0.00,,,0.00,0,Wunderground v.1.15,2013-05-12 07:35:00,
2013-05-12 03:40:00,53.9,52.8,28.93,ENE,69,0.0,0.0,96,0.00,,,0.00,0,Wunderground v.1.15,2013-05-12 07:40:00,
2013-05-12 03:45:00,53.9,52.8,28.94,ENE,69,0.0,0.0,96,0.00,,,0.00,0,Wunderground v.1.15,2013-05-12 07:45:00,
2013-05-12 03:55:00,53.7,52.6,28.94,ENE,69,0.0,0.0,96,0.00,,,0.00,0,Wunderground v.1.15,2013-05-12 07:55:00,
2013-05-12 04:00:00,53.7,52.6,28.95,ENE,69,0.0,0.0,96,0.00,,,0.00,0,Wunderground v.1.15,2013-05-12 08:00:00,
2013-05-12 04:06:00,53.6,52.5,28.95,ENE,69,0.0,1.0,96,0.00,,,0.00,0,Wunderground v.1.15,2013-05-12 08:06:00,
2013-05-12 04:15:00,53.6,52.5,28.95,ENE,69,0.0,0.0,96,0.00,,,0.00,0,Wunderground v.1.15,2013-05-12 08:15:00,
2013-05-12 04:25:00,53.6,52.5,28.95,ENE,69,0.0,0.0,96,0.00,,,0.00,0,Wunderground v.1.15,2013-05-12 08:25:00,
2013-05-12 04:30:00,53.7,52.6,28.95,ENE,69,0.0,0.0,96,0.00,,,0.00,0,Wunderground v.1.15,2013-05-12 08:30:00,
2013-05-12 04:40:00,53.7,52.6,28.94,ENE,69,0.0,0.0,96,0.00,,,0.00,0,Wunderground v.1.15,2013-05-12 08:40:00,
2013-05-12 04:50:00,53.4,52.3,28.94,ENE,69,0.0,0.0,96,0.00,,,0.00,0,Wunderground v.1.15,2013-05-12 08:50:00,
2013-05-12 04:55:00,53.3,52.2,28.94,ENE,69,0.0,0.0,96,0.00,,,0.00,0,Wunderground v.1.15,2013-05-12 08:55:00,
2013-05-12 05:05:00,53.2,52.1,28.93,ENE,69,0.0,0.0,96,0.00,,,0.00,0,Wunderground v.1.15,2013-05-12 09:05:00,
2013-05-12 05:15:00,52.8,51.7,28.93,ENE,69,0.0,0.0,96,0.00,,,0.00,0,Wunderground v.1.15,2013-05-12 09:15:00,
2013-05-12 05:20:00,52.8,51.7,28.93,ENE,69,0.0,0.0,96,0.00,,,0.00,0,Wunderground v.1.15,2013-05-12 09:20:00,
2013-05-12 05:30:00,52.6,51.5,28.94,ENE,69,0.0,2.0,96,0.00,,,0.00,0,Wunderground v.1.15,2013-05-12 09:30:00,
2013-05-12 05:40:00,52.6,51.5,28.95,ENE,72,2.0,2.0,96,0.00,,,0.00,0,Wunderground v.1.15,2013-05-12 09:40:00,
2013-05-12 05:45:00,52.7,51.6,28.95,ENE,72,1.0,2.0,96,0.00,,,0.00,0,Wunderground v.1.15,2013-05-12 09:45:00,
2013-05-12 05:50:00,52.6,51.5,28.95,ENE,73,1.0,1.0,96,0.00,,,0.00,0,Wunderground v.1.15,2013-05-12 09:50:00,
2013-05-12 06:00:00,52.5,51.4,28.95,ENE,73,0.0,0.0,96,0.00,,,0.00,0,Wunderground v.1.15,2013-05-12 10:00:00,
2013-05-12 06:06:00,52.3,51.2,28.95,ENE,73,0.0,1.0,96,0.00,,,0.00,5,Wunderground v.1.15,2013-05-12 10:06:00,
2013-05-12 06:15:00,51.7,50.6,28.95,ENE,75,1.0,2.0,96,0.00,,,0.00,5,Wunderground v.1.15,2013-05-12 10:15:00,
2013-05-12 06:25:00,51.7,50.6,28.95,ENE,78,1.0,1.0,96,0.00,,,0.00,0,Wunderground v.1.15,2013-05-12 10:25:00,
2013-05-12 06:30:00,51.9,50.8,28.95,ENE,78,1.0,1.0,96,0.00,,,0.00,7,Wunderground v.1.15,2013-05-12 10:30:00,
2013-05-12 06:40:00,51.9,50.8,28.96,East,80,1.0,2.0,96,0.00,,,0.00,11,Wunderground v.1.15,2013-05-12 10:40:00,
2013-05-12 06:50:00,51.7,50.6,28.96,ENE,78,1.0,1.0,96,0.00,,,0.00,49,Wunderground v.1.15,2013-05-12 10:50:00,
2013-05-12 07:00:00,51.8,50.7,28.95,ENE,76,1.0,1.0,96,0.00,,,0.00,39,Wunderground v.1.15,2013-05-12 11:00:00,
2013-05-12 07:06:00,51.8,50.7,28.95,ENE,67,1.0,4.0,96,0.00,,,0.00,35,Wunderground v.1.15,2013-05-12 11:06:00,
2013-05-12 07:15:00,51.4,50.3,28.95,ENE,76,2.0,5.0,96,0.00,,,0.00,37,Wunderground v.1.15,2013-05-12 11:15:00,
2013-05-12 07:25:00,51.3,50.2,28.95,ENE,76,1.0,2.0,96,0.00,,,0.00,46,Wunderground v.1.15,2013-05-12 11:25:00,
2013-05-12 07:30:00,51.4,50.3,28.95,East,79,1.0,4.0,96,0.00,,,0.00,54,Wunderground v.1.15,2013-05-12 11:30:00,
2013-05-12 07:40:00,51.3,50.2,28.96,ENE,67,2.0,2.0,96,0.00,,,0.00,33,Wunderground v.1.15,2013-05-12 11:40:00,
2013-05-12 07:50:00,51.4,50.3,28.95,ENE,67,1.0,1.0,96,0.00,,,0.00,28,Wunderground v.1.15,2013-05-12 11:50:00,
2013-05-12 07:55:00,51.4,50.3,28.95,East,89,1.0,1.0,96,0.00,,,0.00,32,Wunderground v.1.15,2013-05-12 11:55:00,
2013-05-12 08:06:00,51.4,50.3,28.95,East,88,0.0,1.0,96,0.00,,,0.00,39,Wunderground v.1.15,2013-05-12 12:06:00,
2013-05-12 08:15:00,51.4,50.3,28.96,East,89,0.0,0.0,96,0.00,,,0.00,47,Wunderground v.1.15,2013-05-12 12:15:00,
2013-05-12 08:25:00,51.4,50.3,28.95,NE,52,0.0,1.0,96,0.00,,,0.00,63,Wunderground v.1.15,2013-05-12 12:25:00,
2013-05-12 08:30:00,51.6,50.5,28.95,NE,52,0.0,0.0,96,0.00,,,0.00,65,Wunderground v.1.15,2013-05-12 12:30:00,
2013-05-12 08:35:00,51.7,50.6,28.95,NE,53,0.0,0.0,96,0.00,,,0.00,51,Wunderground v.1.15,2013-05-12 12:35:00,
2013-05-12 08:45:00,51.8,50.7,28.95,NE,54,0.0,0.0,96,0.00,,,0.00,118,Wunderground v.1.15,2013-05-12 12:45:00,
2013-05-12 08:50:00,52.1,51.0,28.95,NE,55,0.0,1.0,96,0.00,,,0.00,167,Wunderground v.1.15,2013-05-12 12:50:00,
2013-05-12 08:55:00,52.3,51.2,28.94,NE,54,1.0,1.0,96,0.00,,,0.00,109,Wunderground v.1.15,2013-05-12 12:55:00,